DW5852 Weather Reports


Display with metric or nautical units.
time (UTC)temp
F
wind
direction
speed
MPH
gust
MPH
rain 1hr
in
rain 24hr
in
rain mn
in
humidity
%
barometer
mb
20210115142736 21 250 0.0 0.0 0.00 0.00 0.00 43 1011.1
20210115142235 21 256 0.0 0.0 0.00 0.00 0.00 42 1011.3
20210115141737 22 95 0.0 0.0 0.00 0.00 0.00 41 1011.2
20210115141241 22 95 0.0 0.0 0.00 0.00 0.00 41 1011.4
20210115140735 22 96 0.0 1.0 0.00 0.00 0.00 41 1011.4
20210115140234 22 165 0.0 0.0 0.00 0.00 0.00 41 1011.4
20210115135736 22 165 0.0 0.0 0.00 0.00 0.00 41 1011.3
20210115135237 22 240 0.0 0.0 0.00 0.00 0.00 41 1011.4
20210115134736 22 240 0.0 0.0 0.00 0.00 0.00 40 1011.3
20210115134239 22 240 0.0 0.0 0.00 0.00 0.00 40 1011.4
20210115133737 23 239 0.0 0.0 0.00 0.00 0.00 40 1011.5
20210115133234 23 253 0.0 0.0 0.00 0.00 0.00 40 1011.4
20210115132734 22 342 0.0 0.0 0.00 0.00 0.00 40 1011.4
20210115132235 22 343 0.0 0.0 0.00 0.00 0.00 40 1011.6
20210115131741 23 343 0.0 0.0 0.00 0.00 0.00 39 1011.6
20210115131235 23 342 0.0 0.0 0.00 0.00 0.00 39 1011.6
20210115130741 23 51 0.0 0.0 0.00 0.00 0.00 39 1011.7
20210115130237 23 51 0.0 0.0 0.00 0.00 0.00 39 1011.7
20210115125736 23 259 0.0 0.0 0.00 0.00 0.00 39 1011.6
20210115125237 23 287 0.0 0.0 0.00 0.00 0.00 39 1011.6
20210115124734 23 287 0.0 0.0 0.00 0.00 0.00 41 1011.6
20210115124235 23 208 0.0 0.0 0.00 0.00 0.00 41 1011.7
20210115123739 23 221 0.0 1.0 0.00 0.00 0.00 41 1011.6
20210115123240 23 240 0.0 0.0 0.00 0.00 0.00 40 1011.8
20210115122734 23 245 0.0 0.0 0.00 0.00 0.00 41 1011.8
20210115122235 23 250 0.0 1.0 0.00 0.00 0.00 41 1012.1
20210115121734 23 232 0.0 0.0 0.00 0.00 0.00 41 1012.0
20210115121239 23 253 0.0 1.0 0.00 0.00 0.00 41 1012.2
20210115120735 23 249 0.0 1.0 0.00 0.00 0.00 40 1012.3
20210115120259 22 262 0.0 1.0 0.00 0.00 0.00 40 1012.3
20210115115737 22 231 0.0 0.0 0.00 0.00 0.00 40 1012.2
20210115115245 22 173 0.0 0.0 0.00 0.00 0.00 41 1012.4
20210115114738 23 173 0.0 0.0 0.00 0.00 0.00 39 1012.6
20210115114234 22 238 0.0 1.0 0.00 0.00 0.00 40 1012.6
20210115113734 22 257 0.0 0.0 0.00 0.00 0.00 40 1012.8
20210115113235 22 91 0.0 0.0 0.00 0.00 0.00 40 1013.0
20210115112734 22 91 0.0 0.0 0.00 0.00 0.00 40 1012.9
20210115112243 23 91 0.0 0.0 0.00 0.00 0.00 39 1013.0
20210115111737 23 91 0.0 0.0 0.00 0.00 0.00 39 1013.3
20210115111238 23 91 0.0 0.0 0.00 0.00 0.00 39 1013.4
20210115110734 23 92 0.0 0.0 0.00 0.00 0.00 39 1013.7
20210115110235 24 91 0.0 0.0 0.00 0.00 0.00 39 1013.6
20210115105737 24 118 0.0 0.0 0.00 0.00 0.00 39 1013.6
20210115105236 24 94 0.0 0.0 0.00 0.00 0.00 40 1013.7
20210115104735 24 205 0.0 0.0 0.00 0.00 0.00 41 1013.9
20210115104237 24 205 0.0 0.0 0.00 0.00 0.00 40 1013.9
20210115103734 24 205 0.0 0.0 0.00 0.00 0.00 40 1013.9
20210115103244 24 155 0.0 0.0 0.00 0.00 0.00 40 1014.1
20210115102737 24 152 0.0 0.0 0.00 0.00 0.00 40 1014.2
20210115102234 24 335 0.0 0.0 0.00 0.00 0.00 40 1014.2
20210115101734 24 336 0.0 0.0 0.00 0.00 0.00 40 1014.4
20210115101234 25 336 0.0 0.0 0.00 0.00 0.00 39 1014.7
20210115100734 25 20 0.0 1.0 0.00 0.00 0.00 39 1014.7
20210115100243 25 79 0.0 1.0 0.00 0.00 0.00 38 1014.8
20210115095734 25 98 0.0 1.0 0.00 0.00 0.00 39 1015.0
20210115095235 24 79 0.0 1.0 0.00 0.00 0.00 41 1015.1
20210115094737 24 159 0.0 1.0 0.00 0.00 0.00 44 1015.2
20210115094234 24 153 0.0 0.0 0.00 0.00 0.00 44 1015.3
20210115093736 24 159 0.0 0.0 0.00 0.00 0.00 44 1015.3
20210115093234 25 152 0.0 0.0 0.00 0.00 0.00 43 1015.5
20210115092740 25 98 0.0 0.0 0.00 0.00 0.00 43 1015.5
20210115092234 25 82 0.0 1.0 0.00 0.00 0.00 43 1015.4
20210115091736 25 134 0.0 0.0 0.00 0.00 0.00 43 1015.6
20210115091235 25 134 0.0 0.0 0.00 0.00 0.00 43 1015.7
20210115090737 25 134 0.0 0.0 0.00 0.00 0.00 42 1015.7
20210115090234 26 134 0.0 0.0 0.00 0.00 0.00 42 1015.6
20210115085734 26 152 0.0 0.0 0.00 0.00 0.00 41 1015.7
20210115085242 26 152 0.0 0.0 0.00 0.00 0.00 41 1015.8
20210115084740 27 152 0.0 0.0 0.00 0.00 0.00 41 1015.9
20210115084239 26 101 0.0 0.0 0.00 0.00 0.00 41 1016.2
20210115083737 27 102 0.0 0.0 0.00 0.00 0.00 41 1016.2
20210115083234 27 96 0.0 1.0 0.00 0.00 0.00 42 1016.4
20210115082738 26 71 1.0 1.0 0.00 0.00 0.00 43 1016.5
20210115082238 25 148 0.0 0.0 0.00 0.00 0.00 44 1016.5
20210115081734 25 146 0.0 0.0 0.00 0.00 0.00 44 1016.6
20210115081235 25 309 0.0 0.0 0.00 0.00 0.00 44 1016.8
20210115080737 26 309 0.0 0.0 0.00 0.00 0.00 43 1016.9
20210115080234 26 249 0.0 0.0 0.00 0.00 0.00 44 1017.0
20210115075735 25 247 0.0 0.0 0.00 0.00 0.00 45 1017.2
20210115075235 25 236 0.0 0.0 0.00 0.00 0.00 44 1017.1
20210115074737 25 235 0.0 0.0 0.00 0.00 0.00 45 1017.2
20210115074234 25 236 0.0 0.0 0.00 0.00 0.00 44 1017.4
20210115073736 26 236 0.0 0.0 0.00 0.00 0.00 44 1017.5
20210115073234 26 236 0.0 0.0 0.00 0.00 0.00 43 1017.7
20210115072734 26 232 0.0 0.0 0.00 0.00 0.00 43 1017.8
20210115072236 26 207 0.0 0.0 0.00 0.00 0.00 44 1017.8
20210115071737 26 170 0.0 0.0 0.00 0.00 0.00 43 1018.0
20210115071235 27 170 0.0 0.0 0.00 0.00 0.00 42 1018.1
20210115070734 27 170 0.0 0.0 0.00 0.00 0.00 42 1018.1
20210115070241 27 145 0.0 0.0 0.00 0.00 0.00 41 1018.1
20210115065738 27 158 0.0 1.0 0.00 0.00 0.00 41 1018.1
20210115065235 28 153 0.0 4.0 0.00 0.00 0.00 41 1018.2
20210115064737 28 152 0.0 3.0 0.00 0.00 0.00 40 1018.1
20210115064235 28 119 0.0 3.0 0.00 0.00 0.00 40 1018.2
20210115063737 28 136 0.0 5.0 0.00 0.00 0.00 39 1018.2
20210115063234 28 160 2.0 4.0 0.00 0.00 0.00 39 1018.2
20210115062736 28 133 0.0 4.0 0.00 0.00 0.00 38 1018.2
20210115062235 28 152 0.0 1.0 0.00 0.00 0.00 37 1018.4
20210115061734 29 141 0.0 2.0 0.00 0.00 0.00 37 1018.5
20210115061236 28 132 0.0 2.0 0.00 0.00 0.00 36 1018.5
20210115060734 29 150 0.0 1.0 0.00 0.00 0.00 37 1018.4
20210115060236 29 153 0.0 1.0 0.00 0.00 0.00 37 1018.6
20210115055734 29 205 0.0 2.0 0.00 0.00 0.00 36 1018.7
20210115055234 29 113 0.0 1.0 0.00 0.00 0.00 35 1018.8
20210115054734 29 98 0.0 1.0 0.00 0.00 0.00 34 1018.7
20210115054234 29 309 0.0 0.0 0.00 0.00 0.00 32 1018.8
20210115053736 30 309 0.0 0.0 0.00 0.00 0.00 33 1018.8
20210115053235 30 159 0.0 0.0 0.00 0.00 0.00 32 1018.9
20210115052740 30 159 0.0 0.0 0.00 0.00 0.00 33 1019.0
20210115052236 30 93 0.0 1.0 0.00 0.00 0.00 33 1019.1
20210115051736 29 310 0.0 2.0 0.00 0.00 0.00 34 1019.1
20210115051234 29 43 0.0 0.0 0.00 0.00 0.00 35 1019.2
20210115050736 30 43 0.0 0.0 0.00 0.00 0.00 34 1019.0
20210115050235 30 41 0.0 1.0 0.00 0.00 0.00 33 1019.0
20210115045734 31 245 0.0 0.0 0.00 0.00 0.00 32 1018.8
20210115045234 31 245 0.0 0.0 0.00 0.00 0.00 33 1018.8
20210115044735 30 245 0.0 1.0 0.00 0.00 0.00 34 1018.7
20210115044234 30 245 0.0 0.0 0.00 0.00 0.00 34 1018.8
20210115043734 30 245 0.0 1.0 0.00 0.00 0.00 34 1018.9
20210115043237 30 205 0.0 0.0 0.00 0.00 0.00 34 1018.8
20210115042735 31 200 0.0 0.0 0.00 0.00 0.00 34 1019.0
20210115042236 31 198 0.0 2.0 0.00 0.00 0.00 34 1018.9
20210115041734 31 181 0.0 1.0 0.00 0.00 0.00 34 1018.8
20210115041234 32 238 0.0 4.0 0.00 0.00 0.00 33 1018.8
20210115040734 32 181 2.0 3.0 0.00 0.00 0.00 33 1018.8
20210115040234 32 180 1.0 5.0 0.00 0.00 0.00 32 1018.6
20210115035734 32 179 2.0 4.0 0.00 0.00 0.00 32 1018.7
20210115035234 32 183 1.0 4.0 0.00 0.00 0.00 32 1018.6
20210115034736 32 163 1.0 3.0 0.00 0.00 0.00 32 1018.5
20210115034236 32 159 0.0 5.0 0.00 0.00 0.00 32 1018.5
20210115033734 32 159 4.0 7.0 0.00 0.00 0.00 31 1018.4
20210115033239 32 177 4.0 7.0 0.00 0.00 0.00 31 1018.6
20210115032735 32 174 2.0 6.0 0.00 0.00 0.00 31 1018.5
20210115032234 33 193 4.0 7.0 0.00 0.00 0.00 31 1018.4
20210115031736 33 155 5.0 7.0 0.00 0.00 0.00 30 1018.4
20210115031234 33 235 1.0 5.0 0.00 0.00 0.00 30 1018.2
20210115030735 33 238 0.0 5.0 0.00 0.00 0.00 30 1018.1
20210115030236 33 203 2.0 3.0 0.00 0.00 0.00 30 1018.1
20210115025734 34 191 1.0 2.0 0.00 0.00 0.00 28 1018.1
20210115025237 34 208 0.0 2.0 0.00 0.00 0.00 27 1018.0
20210115024734 35 100 0.0 1.0 0.00 0.00 0.00 26 1018.0
20210115024237 35 5 0.0 5.0 0.00 0.00 0.00 26 1017.9
20210115023735 36 354 0.0 6.0 0.00 0.00 0.00 25 1017.9
20210115023234 35 256 5.0 7.0 0.00 0.00 0.00 26 1017.7
20210115022734 35 354 2.0 2.0 0.00 0.00 0.00 27 1017.9
20210115022243 34 291 0.0 1.0 0.00 0.00 0.00 28 1017.7
20210115021734 34 218 0.0 1.0 0.00 0.00 0.00 29 1017.6
20210115021234 34 200 0.0 7.0 0.00 0.00 0.00 29 1017.5
20210115020734 34 218 0.0 7.0 0.00 0.00 0.00 29 1017.4
20210115020234 35 229 0.0 2.0 0.00 0.00 0.00 29 1017.4
20210115015735 35 266 0.0 6.0 0.00 0.00 0.00 28 1017.4
20210115015247 35 271 1.0 7.0 0.00 0.00 0.00 28 1017.3
20210115014734 35 226 1.0 8.0 0.00 0.00 0.00 28 1017.2
20210115014234 36 205 3.0 9.0 0.00 0.00 0.00 28 1017.1
20210115013737 36 266 4.0 11.0 0.00 0.00 0.00 27 1016.9
20210115013235 36 257 8.0 12.0 0.00 0.00 0.00 27 1017.0
20210115012734 36 222 10.0 14.0 0.00 0.00 0.00 27 1017.0
20210115012242 36 235 6.0 9.0 0.00 0.00 0.00 26 1016.7
20210115011737 37 232 0.0 8.0 0.00 0.00 0.00 26 1016.8
20210115011234 37 263 6.0 8.0 0.00 0.00 0.00 25 1016.8
20210115010735 37 253 3.0 7.0 0.00 0.00 0.00 24 1016.5
20210115010320 37 276 1.0 6.0 0.00 0.00 0.00 24 1016.5
20210115005744 37 218 0.0 2.0 0.00 0.00 0.00 24 1016.4
20210115005236 38 232 0.0 1.0 0.00 0.00 0.00 23 1016.3
20210115004734 38 226 0.0 4.0 0.00 0.00 0.00 22 1016.1
20210115004236 39 229 0.0 1.0 0.00 0.00 0.00 21 1015.8
20210115003737 39 203 0.0 0.0 0.00 0.00 0.00 19 1015.8
20210115003235 40 260 0.0 6.0 0.00 0.00 0.00 18 1015.9
20210115002734 40 233 0.0 6.0 0.00 0.00 0.00 18 1015.7
20210115002235 40 63 0.0 7.0 0.00 0.00 0.00 18 1015.5
20210115001734 40 273 1.0 7.0 0.00 0.00 0.00 18 1015.5
20210115001236 41 200 2.0 8.0 0.00 0.00 0.00 17 1015.4
20210115000740 41 238 0.0 9.0 0.00 0.00 0.00 17 1015.4
20210115000249 41 264 0.0 7.0 0.00 0.00 0.00 17 1015.3
20210114235734 42 238 2.0 12.0 0.00 0.00 0.00 16 1015.1
20210114235235 42 208 5.0 7.0 0.00 0.00 0.00 16 1014.9
20210114234734 42 226 1.0 9.0 0.00 0.00 0.00 16 1014.9
20210114234248 43 305 3.0 8.0 0.00 0.00 0.00 15 1014.8
20210114233735 43 257 0.0 5.0 0.00 0.00 0.00 15 1014.6
20210114233234 43 356 0.0 4.0 0.00 0.00 0.00 15 1014.5
20210114232735 44 200 0.0 7.0 0.00 0.00 0.00 14 1014.4
20210114232234 44 245 1.0 9.0 0.00 0.00 0.00 14 1014.3
20210114231737 45 335 2.0 5.0 0.00 0.00 0.00 14 1014.1
20210114231234 45 314 3.0 9.0 0.00 0.00 0.00 13 1014.0
20210114230738 45 319 6.0 8.0 0.00 0.00 0.00 13 1013.9
20210114230236 45 333 0.0 6.0 0.00 0.00 0.00 13 1013.8
20210114225734 46 302 0.0 1.0 0.00 0.00 0.00 14 1013.7
20210114225235 46 255 0.0 1.0 0.00 0.00 0.00 14 1013.7
20210114224740 45 276 0.0 3.0 0.00 0.00 0.00 13 1013.6
20210114224234 45 328 0.0 6.0 0.00 0.00 0.00 13 1013.5
20210114223737 46 325 3.0 6.0 0.00 0.00 0.00 13 1013.4
20210114223235 46 268 1.0 9.0 0.00 0.00 0.00 13 1013.4
20210114222737 47 215 2.0 8.0 0.00 0.00 0.00 13 1013.3
20210114222236 47 245 2.0 7.0 0.00 0.00 0.00 15 1013.1
20210114221734 47 218 2.0 6.0 0.00 0.00 0.00 15 1013.1
20210114221247 47 300 0.0 6.0 0.00 0.00 0.00 14 1013.0
20210114220734 47 343 0.0 3.0 0.00 0.00 0.00 13 1013.0
20210114220235 47 200 0.0 4.0 0.00 0.00 0.00 13 1012.9
20210114215737 47 250 0.0 3.0 0.00 0.00 0.00 13 1012.9
20210114215234 47 310 0.0 6.0 0.00 0.00 0.00 13 1012.8
20210114214735 47 107 0.0 9.0 0.00 0.00 0.00 13 1012.7
20210114214235 48 300 0.0 4.0 0.00 0.00 0.00 13 1012.6
20210114213746 48 319 1.0 3.0 0.00 0.00 0.00 13 1012.7
20210114213235 48 325 0.0 7.0 0.00 0.00 0.00 12 1012.6
20210114212734 48 287 2.0 7.0 0.00 0.00 0.00 13 1012.6
20210114212234 48 20 0.0 2.0 0.00 0.00 0.00 12 1012.6
20210114211734 48 308 1.0 7.0 0.00 0.00 0.00 12 1012.3
20210114211234 48 253 0.0 11.0 0.00 0.00 0.00 12 1012.2
20210114210735 48 335 3.0 11.0 0.00 0.00 0.00 12 1012.2
20210114210237 48 259 2.0 5.0 0.00 0.00 0.00 12 1012.1
20210114205734 48 266 2.0 7.0 0.00 0.00 0.00 12 1012.1
20210114205234 48 247 5.0 9.0 0.00 0.00 0.00 11 1011.9
20210114204734 49 215 4.0 8.0 0.00 0.00 0.00 10 1011.8
20210114204234 49 260 0.0 2.0 0.00 0.00 0.00 10 1011.7
20210114203737 49 29 0.0 6.0 0.00 0.00 0.00 9 1011.6
20210114203235 49 16 1.0 11.0 0.00 0.00 0.00 9 1011.5
20210114202734 49 43 0.0 1.0 0.00 0.00 0.00 10 1011.5
20210114202234 48 302 1.0 3.0 0.00 0.00 0.00 10 1011.6
20210114201735 48 3 0.0 8.0 0.00 0.00 0.00 10 1011.6
20210114201237 47 241 1.0 9.0 0.00 0.00 0.00 10 1011.6
20210114200734 47 14 6.0 9.0 0.00 0.00 0.00 11 1011.6
20210114200242 47 347 7.0 10.0 0.00 0.00 0.00 9 1011.5
20210114195734 47 316 4.0 10.0 0.00 0.00 0.00 10 1011.5
20210114195234 47 215 5.0 14.0 0.00 0.00 0.00 10 1011.6
20210114194734 47 335 5.0 10.0 0.00 0.00 0.00 10 1011.5
20210114194238 47 308 4.0 15.0 0.00 0.00 0.00 10 1011.3
20210114193734 47 305 7.0 21.0 0.00 0.00 0.00 10 1011.4
20210114193234 48 225 0.0 14.0 0.00 0.00 0.00 11 1011.4
20210114192736 47 58 2.0 13.0 0.00 0.00 0.00 14 1011.5
20210114192234 46 3 1.0 7.0 0.00 0.00 0.00 19 1011.6
20210114191734 46 84 2.0 8.0 0.00 0.00 0.00 20 1011.6
20210114191515 46 188 0.0 3.0 0.00 0.00 0.00 28 1011.6
20210114190734 46 128 0.0 2.0 0.00 0.00 0.00 27 1011.6
20210114190234 44 240 0.0 3.0 0.00 0.00 0.00 28 1011.6
20210114185734 43 153 2.0 4.0 0.00 0.00 0.00 36 1011.7
20210114185235 42 177 1.0 4.0 0.00 0.00 0.00 38 1011.9
20210114184734 42 139 0.0 10.0 0.00 0.00 0.00 38 1012.1
20210114184234 42 167 6.0 13.0 0.00 0.00 0.00 39 1012.1
20210114183755 42 77 1.0 11.0 0.00 0.00 0.00 40 1012.3
20210114183240 41 166 5.0 8.0 0.00 0.00 0.00 39 1012.1
20210114182735 41 152 0.0 4.0 0.00 0.00 0.00 40 1012.0
20210114182236 41 163 0.0 3.0 0.00 0.00 0.00 41 1012.3
20210114181734 40 280 0.0 9.0 0.00 0.00 0.00 41 1012.4
20210114181234 40 129 1.0 6.0 0.00 0.00 0.00 42 1012.7
20210114180734 40 96 0.0 2.0 0.00 0.00 0.00 43 1013.0
20210114180237 39 142 1.0 6.0 0.00 0.00 0.00 44 1012.9
20210114175734 39 167 6.0 9.0 0.00 0.00 0.00 44 1012.6
20210114175235 39 115 0.0 4.0 0.00 0.00 0.00 45 1013.0
20210114174735 39 102 0.0 5.0 0.00 0.00 0.00 45 1013.1
20210114174235 39 137 0.0 7.0 0.00 0.00 0.00 45 1013.0
20210114173736 38 155 6.0 7.0 0.00 0.00 0.00 46 1012.8
20210114173235 38 71 3.0 6.0 0.00 0.00 0.00 46 1012.9
20210114172735 38 90 0.0 5.0 0.00 0.00 0.00 47 1012.9
20210114172238 37 158 0.0 7.0 0.00 0.00 0.00 47 1013.0
20210114171734 37 177 4.0 7.0 0.00 0.00 0.00 47 1013.0
20210114171234 37 113 0.0 9.0 0.00 0.00 0.00 48 1013.1
20210114170734 37 159 3.0 5.0 0.00 0.00 0.00 48 1013.1
20210114170234 37 152 0.0 5.0 0.00 0.00 0.00 49 1013.1
20210114165742 37 142 2.0 5.0 0.00 0.00 0.00 49 1013.1
20210114165242 36 177 0.0 1.0 0.00 0.00 0.00 49 1013.2
20210114164737 36 167 1.0 3.0 0.00 0.00 0.00 50 1013.3
20210114164237 36 147 0.0 0.0 0.00 0.00 0.00 51 1013.5
20210114163738 35 146 0.0 0.0 0.00 0.00 0.00 52 1013.2
20210114163235 35 215 0.0 0.0 0.00 0.00 0.00 54 1013.2
20210114162749 34 335 0.0 0.0 0.00 0.00 0.00 54 1013.4
20210114162238 34 94 0.0 1.0 0.00 0.00 0.00 54 1013.3
20210114161734 34 110 0.0 0.0 0.00 0.00 0.00 54 1013.4
20210114161234 33 94 0.0 1.0 0.00 0.00 0.00 54 1013.5
20210114160734 34 96 0.0 1.0 0.00 0.00 0.00 54 1013.4
20210114160236 33 107 0.0 1.0 0.00 0.00 0.00 55 1013.5
20210114155742 33 113 0.0 0.0 0.00 0.00 0.00 55 1013.5
20210114155234 33 143 0.0 1.0 0.00 0.00 0.00 56 1013.5
20210114154739 33 158 0.0 1.0 0.00 0.00 0.00 57 1013.6
20210114154235 32 166 0.0 5.0 0.00 0.00 0.00 56 1013.5
20210114153736 32 152 1.0 2.0 0.00 0.00 0.00 57 1013.2
20210114153234 32 155 1.0 3.0 0.00 0.00 0.00 57 1013.1
20210114152734 32 167 0.0 2.0 0.00 0.00 0.00 58 1013.1
20210114152235 31 136 0.0 1.0 0.00 0.00 0.00 59 1013.0
20210114151734 31 197 0.0 1.0 0.00 0.00 0.00 61 1013.1
20210114151234 30 193 0.0 0.0 0.00 0.00 0.00 62 1013.2
20210114150757 29 160 0.0 0.0 0.00 0.00 0.00 64 1013.1
20210114150236 28 194 0.0 1.0 0.00 0.00 0.00 65 1012.9
20210114145734 27 203 0.0 0.0 0.00 0.00 0.00 66 1012.9
20210114145236 27 185 0.0 0.0 0.00 0.00 0.00 67 1013.1
20210114144743 27 169 0.0 1.0 0.00 0.00 0.00 66 1013.1
20210114144234 27 170 0.0 1.0 0.00 0.00 0.00 67 1013.2
20210114143735 27 257 0.0 3.0 0.00 0.00 0.00 66 1013.2
20210114143234 27 170 0.0 0.0 0.00 0.00 0.00 67 1013.1